Regional & State Weather Roundups


822 
ASUS44 KMEG 110910
RWRTN 
TENNESSEE HOURLY STATE WEATHER ROUNDUP
NATIONAL WEATHER SERVICE MEMPHIS TN
300 AM CST MON DEC 11 2017
TNZ002-004-019-021-049-052-054-088>092-111000-
WEST TENNESSEE
  
CITY           SKY/WX    TMP DP  RH WIND       PRES   REMARKS
MEMPHIS INTL   CLEAR     38  31  76 CALM      30.18S                  
NWS MEMPHIS      N/A     33 N/A N/A MISG        N/A                   
JACKSON        CLEAR     35  29  78 SW3       30.16F                  
DYERSBURG      CLEAR     36  30  79 CALM      30.17S                  
SOMERVILLE     CLEAR     37  30  75 CALM      30.15F                  
COVINGTON      CLEAR     30  28  93 CALM      30.17S                  
UNION CITY     CLEAR     28  25  86 CALM      30.15F                  
BOLIVAR        CLEAR     39  30  70 CALM      30.16S                  
PARIS          CLEAR     30  27  86 CALM      30.14S                  
HUNTINGDON     CLEAR     30  27  86 CALM      30.14S                  
LEXINGTON      CLEAR     30  27  86 CALM      30.16S                  
SAVANNAH       CLEAR     28  28 100 CALM      30.16F                  
$$
TNZ008-025-027-028-033-062-065-066-111000-
NORTH MIDDLE TENNESSEE
  
CITY           SKY/WX    TMP DP  RH WIND       PRES   REMARKS
NASHVILLE      CLEAR     35  26  69 CALM      30.17S                  
PORTLAND       CLEAR     28  25  86 S7        30.14S WCI  21          
CLARKSVILLE    CLEAR     30  23  75 CALM      30.15S                  
SMYRNA         CLEAR     28  24  85 CALM      30.18S                  
COOKEVILLE     CLEAR     27  23  86 S3        30.15F                  
GALLATIN       CLEAR     27  23  86 CALM      30.18F                  
CROSSVILLE     CLEAR     29  20  69 SW5       30.14S WCI  24          
$$
TNZ061-075-076-078-094-096-097-111000-
SOUTH MIDDLE TENNESSEE
  
CITY           SKY/WX    TMP DP  RH WIND       PRES   REMARKS
FAYETTEVILLE   CLEAR     32  25  74 CALM      30.17R                  
TULLAHOMA      CLEAR     28  23  80 CALM      30.16S                  
WINCHESTER     CLEAR     30  25  80 CALM      30.18S                  
MCMINNVILLE    CLEAR     32  23  69 CALM      30.16S                  
COLUMBIA       CLEAR     30  27  86 SE3       30.14F                  
SHELBYVILLE    CLEAR     28  25  86 E3        30.16F                  
$$
TNZ017-018-042-046-047-111000-
NORTHEAST TENNESSEE
  
CITY           SKY/WX    TMP DP  RH WIND       PRES   REMARKS
TRI CITIES     CLEAR     23  21  92 CALM      30.15S                  
ELIZABETHTON   PTCLDY    23  21  93 CALM      30.15S                  
$$
TNZ012-013-036-069-073-074-111000-
CENTRAL EAST TENNESSEE
  
CITY           SKY/WX    TMP DP  RH WIND       PRES   REMARKS
KNOXVILLE      CLEAR     34  26  72 NW6       30.17S WCI  29          
OAK RIDGE      CLEAR     29  24  82 S3        30.19S                  
DOWNTOWN KNOXV CLEAR     30  25  80 W3        30.18F                  
GATLINBURG     CLEAR     34  23  64 SW3       30.16S                  
MORRISTOWN     PTCLDY    34  23  64 CALM      30.14F                  
JACKSBORO      CLEAR     27  23  86 CALM      30.19S                  
$$
TNZ083-085-099-111000-
SOUTHEAST TENNESSEE
  
CITY           SKY/WX    TMP DP  RH WIND       PRES   REMARKS
CHATTANOOGA    CLEAR     30  25  81 CALM      30.19S                  
DAYTON         MOSUNNY   27  25  93 CALM      30.18S                  
$$
SKY/WX REPORTED AS FAIR MEANS FEW OR NO CLOUDS BELOW
12 THOUSAND FEET.
  

823 
ASUS44 KMEG 110910
RWRMEG
MEMPHIS CWA HOURLY WEATHER ROUNDUP
NATIONAL WEATHER SERVICE MEMPHIS TN
300 AM CST MON DEC 11 2017
...WEST TENNESSEE...
  
CITY           SKY/WX    TMP DP  RH WIND       PRES   REMARKS
MEMPHIS INTL   CLEAR     38  31  76 CALM      30.18S                  
NWS MEMPHIS      N/A     33 N/A N/A MISG        N/A                   
JACKSON        CLEAR     35  29  78 SW3       30.16F                  
COVINGTON      CLEAR     30  28  93 CALM      30.17S                  
SOMERVILLE     CLEAR     37  30  75 CALM      30.15F                  
BOLIVAR        CLEAR     39  30  70 CALM      30.16S                  
LEXINGTON      CLEAR     30  27  86 CALM      30.16S                  
SAVANNAH       CLEAR     28  28 100 CALM      30.16F                  
DYERSBURG      CLEAR     36  30  79 CALM      30.17S                  
UNION CITY     CLEAR     28  25  86 CALM      30.15F                  
PARIS          CLEAR     30  27  86 CALM      30.14S                  
HUNTINGDON     CLEAR     30  27  86 CALM      30.14S                  
...EASTERN ARKANSAS...
  
CITY           SKY/WX    TMP DP  RH WIND       PRES   REMARKS
JONESBORO      CLEAR     35  29  78 CALM      30.17S                  
WEST MEMPHIS   CLEAR     32  31  96 CALM      30.17F                  
BATESVILLE     CLEAR     38  27  64 NW3       30.18S                  
NEWPORT        CLEAR     33  28  81 S7        30.19R WCI  27          
WALNUT RIDGE   CLEAR     35  26  69 SW5       30.17S WCI  31          
BLYTHEVILLE    CLEAR     34  30  85 S5        30.17S WCI  30          
SEARCY         CLEAR     32  28  85 CALM      30.19S                  
STUTTGART      CLEAR     37  31  78 W5        30.20F WCI  33          
PINE BLUFF     CLEAR     39  29  67 SW3       30.21S                  
MONTICELLO     CLEAR     44  29  55 W7        30.22S                  
...NORTH MISSISSIPPI...
  
CITY           SKY/WX    TMP DP  RH WIND       PRES   REMARKS
TUPELO         PTCLDY    34  26  72 CALM      30.19F                  
BATESVILLE     CLEAR     31  27  84 CALM      30.21S                  
TUNICA           N/A    N/A N/A N/A CALM      30.20F                  
CLARKSDALE     CLOUDY    39  34  81 SW6       30.21S WCI  35          
CORINTH        PTCLDY    30  27  86 CALM      30.17F                  
GREENWOOD      CLEAR     38  30  73 S5        30.22S WCI  34          
COLUMBUS       CLEAR     29  27  93 CALM      30.21R                  
STARKVILLE     CLEAR     32  28  86 SW3       30.22S                  
GOLDEN TRIANGL CLEAR     40  28  62 SW5       30.21S                  
...SOUTHEAST MISSOURI...
  
CITY           SKY/WX    TMP DP  RH WIND       PRES   REMARKS
KENNETT        CLEAR     32  30  93 SW7       30.15S WCI  26          
MALDEN         CLEAR     37  28  70 SW5       30.15F WCI  34          
WEST PLAINS    CLEAR     37  24  59 W5        30.14F WCI  33          
POPLAR BLUFF   CLEAR     29  26  89 CALM      30.15S                  
CAPE GIRARDEAU CLEAR     26  23  88 CALM      30.14S                  
...NORTHWEST ALABAMA...
  
CITY           SKY/WX    TMP DP  RH WIND       PRES   REMARKS
MUSCLE SHOALS  CLEAR     33  27  78 CALM      30.19S                  
...MIDDLE TENNESSEE...
  
CITY           SKY/WX    TMP DP  RH WIND       PRES   REMARKS
NASHVILLE      CLEAR     35  26  69 CALM      30.17S                  
CLARKSVILLE    CLEAR     30  23  75 CALM      30.15S                  
COLUMBIA       CLEAR     30  27  86 SE3       30.14F                  
...WESTERN KENTUCKY...
  
CITY           SKY/WX    TMP DP  RH WIND       PRES   REMARKS
PADUCAH        CLEAR     27  22  81 CALM      30.13S                  
FORT CAMPBELL  CLEAR     33  24  69 SW3       30.14S                  
...CENTRAL ARKANSAS...
  
CITY           SKY/WX    TMP DP  RH WIND       PRES   REMARKS
LITTLE ROCK    CLEAR     36  30  79 SW3       30.21S                  
SKY/WX REPORTED AS FAIR MEANS FEW OR NO CLOUDS BELOW
12 THOUSAND FEET.